sat.trackr.live / text

‹ back to catalog

STARLINK-5748

NORAD 55604 · 2023-020AM

PAYLOAD ACTIVE UNKNOWN

§ Identity

Operator
Country
US
Launch date
2023-02-12
Launch site
AFETR
Launch vehicle
Mass (kg)
RCS (m²)

Purposes: comms

External: N2YO · Heavens-Above · Gunter

§ Orbital elements

Epoch: 2026-05-24T19:39:46.941984Z

Period
94.27 min
Inclination
43.0019°
Eccentricity
0.0001487
Mean motion
15.27569697 rev/d
Perigee alt
482.1 km
Apogee alt
484.1 km
Semi-major
6,861.2 km
B*
1.2308e-4
RAAN
269.4630°
Arg perigee
266.6803°
Mean anomaly
93.3879°
Rev number
18,085

§ Raw data

STARLINK-57481 55604U 23020AM  26144.81929331  .00003125  00000+0  12308-3 0  99972 55604  43.0019 269.4630 0001487 266.6803  93.3879 15.27569697180858

JSON: /api/v1/satellites/55604 · /tle

For live sub-satellite position, see the globe view (requires WebGL).

§ Visibility from observer

Set your observer location to see the next 7 days of passes ≥ 10°. The values pass through the URL so the page stays shareable.

No JS? Fill the form by hand. The geolocation button needs JavaScript.